Regional Weather Roundup
Issued by NWS

Home | Current Version | Previous Version | Graphics & Text | Print | Product List | Glossary On
Versions: 1 2 3 4 5 6 7 8 9 10 11 12 13 14 15 16 17 18 19 20 21 22 23 24 25 26 27 28 29 30 31 32 33 34 35 36 37 38 39 40 41 42 43 44 45 46 47 48 49 50
000
ASUS43 KLMK 252210
RWRKY
KENTUCKY REGIONAL WEATHER ROUNDUP
NATIONAL WEATHER SERVICE LOUISVILLE KY
600 PM EDT WED MAY 25 2016

NOTE "FAIR" INDICATES FEW OR NO CLOUDS BELOW 12,000 FEET
WITH NO SIGNIFICANT WEATHER AND/OR OBSTRUCTIONS TO VISIBILITY.

KYZ001>023-026-027-061>063-070>075-252300-
WESTERN AND SOUTH CENTRAL KENTUCKY

CITY           SKY/WX    TMP DP  RH WIND       PRES   REMARKS
PADUCAH        CLOUDY    75  68  78 SE13      29.99F
HENDERSON      PTSUNNY   72  64  78 S9        30.01F
OWENSBORO      LGT RAIN  71  68  90 S13       30.04F
HOPKINSVILLE   DRIZZLE   70  68  94 NE2       30.11R
BOWLING GREEN  RAIN      69  67  93 E6        30.13F FOG
GLASGOW        TSTM      69  68  96 W15G22    30.18R
$$

KYZ024-025-028>034-038-045-046-053-252300-
NORTH CENTRAL KENTUCKY

CITY           SKY/WX    TMP DP  RH WIND       PRES   REMARKS
LOUISVILLE/SDF CLOUDY    81  63  54 S17       30.06S
LOUISVILLE/LOU CLOUDY    81  64  56 S13G20    30.06F
FORT KNOX      CLOUDY    78  65  63 S15G22    30.07S
$$

KYZ035>037-039>044-047>052-055>060-089>105-252300-
NORTHEAST KENTUCKY

CITY           SKY/WX    TMP DP  RH WIND       PRES   REMARKS
LEXINGTON      PTSUNNY   78  62  57 SW14      30.11S
COVINGTON      PTSUNNY   81  62  52 S10G18    30.06F
FRANKFORT      PTSUNNY   80  62  54 SW12      30.08F
$$

KYZ054-064>069-076>088-106>120-252300-
SOUTHEAST KENTUCKY

CITY           SKY/WX    TMP DP  RH WIND       PRES   REMARKS
JACKSON        CLOUDY    74  60  61 VRB5      30.16R
LONDON         PTSUNNY   75  62  64 S8        30.16F
SOMERSET       PTSUNNY   77  59  53 SW6       30.16R
MIDDLESBORO    CLOUDY    79  59  50 SW5       30.18R
MONTICELLO     MOCLDY    79  63  57 W12       30.17R
$$





USA.gov is the U.S. government's official web portal to all federal, state and local government web resources and services.